Content
SEND FEEDBACK

Daily
Averages
Monthly
Summary
United States of America

SOUTH LAKE TAHOE - AIRPORT, CALIFORNIA


Home > North America > United States > California
Elevation: 1905 meters     Latitude: 38 54N     Longitude: 120 00W

WEATHER
 
SELECT A DAY
Number of Records: 174,420;   Date Range: 1/1/95 - 7/29/14
 
SHARE

PRINT THIS DATA

[ ← Previous Day ]
WEATHER ALMANAC - 20 MARCH, 2013
[ Next Day → ]
[ °F ]   °C
Weather ElementAverageHighLow
Temperature4.2 °C6.7 °C (12:53 pm)1.7 °C (6:53 am)
Dewpoint0.5 °C2.2 °C (11:53 am)-1.1 °C (11:53 pm)
Humidity77.2 %87 % (7:19 am)65 % (8:38 pm)
Barometer1017.3 hPa1019 hPa (10:24 am)1014.6 hPa (3:53 am)
Wind Speed18.5 km/h33.3 km/h (12:53 pm)
Wind Gust57.5 km/h (9:41 pm)
Weather ElementAverage
Visibility10.5 km
Wind DirectionSSE (172.2 °)

Weather ElementTotal
Precipitation22.86 mm
Heating Degree Days14.1 (Base 18.3)
Averaged from 51 records on 20 March, 2013
WEATHER CONDITIONS BREAKOUT
WIND DIRECTION BREAKOUT
WEATHER BY HOUR - 20 MARCH, 2013
[ °F ]   °C
Local TimeTemperatureDewpointHumidityBarometerVisibilityWind DirectionWind SpeedGust SpeedPrecipitationEventsConditions
1:53 AM4.4 °C0 °C73 %1016.3 hPa16.1 kmSSW (200°)20.4 km/h40.7 km/h0.51 mmRainLight Rain
2:53 AM3.9 °C0 °C76 %1015.2 hPa16.1 kmSouth (170°)27.8 km/h37 km/h0.25 mmRainLight Rain
3:53 AM3.9 °C-0.6 °C73 %1014.6 hPa16.1 kmSSE (150°)20.4 km/h0 mmRainLight Rain
4:53 AM3.3 °C-0.6 °C76 %1015.6 hPa14.5 kmSouth (170°)22.2 km/h35.2 km/h0 mmRainLight Rain
5:53 AM2.8 °C-0.6 °C79 %1016.3 hPa4.8 kmSouth (170°)16.7 km/h0.51 mmSnowLight Snow
6:13 AM2 °C-1 °C81 %1018.3 hPa3.2 kmSouth (170°)18.5 km/h0.51 mmSnowLight Snow
6:20 AM2 °C-1 °C81 %1017.9 hPa2.9 kmSouth (180°)16.7 km/h0.76 mmSnowLight Snow
6:30 AM2 °C-1 °C81 %1018.3 hPa3.2 kmSouth (180°)13 km/h1.02 mmSnowLight Snow
6:53 AM1.7 °C-0.6 °C85 %1016.3 hPa4.8 kmSouth (190°)9.3 km/h1.52 mmSnowLight Snow
7:02 AM2 °C-1 °C81 %1017.9 hPa4 kmSouth (180°)13 km/h0.51 mmSnowLight Snow
7:19 AM2 °C0 °C87 %1017.9 hPa6.4 kmSouth (170°)11.1 km/h1.02 mmSnowLight Snow
7:27 AM3 °C0 °C81 %1017.6 hPa12.9 kmSouth (170°)16.7 km/h1.02 mmRainLight Rain
7:45 AM3 °C0 °C81 %1017.9 hPa9.7 kmSSE (150°)5.6 km/h1.02 mmRainLight Rain
7:53 AM3.3 °C0.6 °C83 %1015.9 hPa8 kmCalm1.02 mmRainLight Rain
8:15 AM3 °C1 °C87 %1017.9 hPa8 kmCalm0.25 mmRainLight Rain
8:53 AM3.9 °C1.1 °C82 %1016.6 hPa4 kmSouth (190°)13 km/h1.02 mmRainRain
9:03 AM4 °C1 °C81 %1018.6 hPa6.4 kmSouth (190°)13 km/h0.25 mmRainLight Rain
9:40 AM4 °C1 °C81 %1018.6 hPa4 kmCalm1.02 mmRainLight Rain
9:53 AM3.9 °C0.6 °C79 %1016.9 hPa4 kmSouth (190°)11.1 km/h1.52 mmRainRain
10:06 AM4 °C1 °C81 %1018.3 hPa8 kmSouth (180°)13 km/h0.25 mmRainLight Rain
10:24 AM4 °C1 °C81 %1019 hPa6.4 kmSouth (190°)20.4 km/h33.3 km/h0.51 mmRainLight Rain
10:53 AM3.9 °C0.6 °C79 %1017.3 hPa6.4 kmSouth (190°)25.9 km/h38.9 km/h1.02 mmRainLight Rain
11:08 AM5 °C1 °C76 %1018.6 hPa8 kmSouth (190°)25.9 km/h37 km/h0 mmRainLight Rain
11:53 AM6.1 °C2.2 °C76 %1016.9 hPa16.1 kmSouth (190°)16.7 km/h35.2 km/h0 mmRainLight Rain
12:53 PM6.7 °C1.1 °C68 %1015.9 hPa16.1 kmSSW (200°)33.3 km/h48.1 km/h0 mmScattered Clouds
1:53 PM5.6 °C1.7 °C76 %1016.3 hPa8 kmSSW (200°)20.4 km/h38.9 km/h0.25 mmRainLight Rain
2:07 PM5 °C1 °C76 %1018.3 hPa6.4 kmSSW (200°)16.7 km/h46.3 km/h0.25 mmRainLight Rain
2:14 PM5 °C1 °C76 %1018.6 hPa9.7 kmSSW (210°)13 km/h33.3 km/h0.25 mmRainLight Rain
2:28 PM4 °C1 °C81 %1018.6 hPa6.4 kmSouth (190°)14.8 km/h0.51 mmRainLight Rain
2:49 PM4 °C1 °C81 %1018.6 hPa4 kmSouth (190°)27.8 km/h38.9 km/h1.02 mmRainLight Rain
2:53 PM3.9 °C1.1 °C82 %1017.3 hPa4.8 kmSouth (180°)22.2 km/h1.02 mmRainLight Rain
3:24 PM4 °C1 °C81 %1017.9 hPa12.9 kmSouth (190°)16.7 km/h0.51 mmRainLight Rain
3:41 PM5 °C1 °C76 %1018.3 hPa16.1 kmSSW (200°)11.1 km/h37 km/h0.51 mmOvercast
3:51 PM5 °C1 °C76 %1017.9 hPa6.4 kmSSW (200°)22.2 km/h40.7 km/h0.76 mmRainRain
3:53 PM5 °C1.1 °C76 %1016.6 hPa4.8 kmSSW (200°)24.1 km/h40.7 km/h0.76 mmRainRain
4:09 PM5 °C2 °C81 %1017.3 hPa6.4 kmSouth (190°)25.9 km/h35.2 km/h0.51 mmRainLight Rain
4:17 PM5 °C2 °C81 %1017.3 hPa9.7 kmSouth (180°)24.1 km/h37 km/h0.51 mmRainLight Rain
4:53 PM6.1 °C1.1 °C71 %1015.6 hPa16.1 kmSouth (170°)25.9 km/h46.3 km/h0.51 mmOvercast
5:01 PM6 °C2 °C76 %1017.3 hPa16.1 kmSouth (180°)29.6 km/h38.9 km/h0 mmRainLight Rain
5:39 PM6 °C1 °C70 %1016.9 hPa16.1 kmSouth (170°)31.5 km/h50.1 km/h0 mmScattered Clouds
5:53 PM5.6 °C1.1 °C73 %1015.2 hPa16.1 kmSouth (180°)24.1 km/h46.3 km/h0 mmRainLight Rain
6:18 PM5 °C1 °C76 %1017.3 hPa16.1 kmSouth (170°)14.8 km/h33.3 km/h0 mmRainLight Rain
6:53 PM4.4 °C0.6 °C77 %1016.3 hPa16.1 kmSouth (180°)24.1 km/h40.7 km/h0 mmRainLight Rain
7:53 PM5 °C0 °C70 %1015.2 hPa16.1 kmSouth (180°)31.5 km/h48.1 km/h0 mmMostly Cloudy
8:38 PM5 °C-1 °C65 %1017.3 hPa16.1 kmSSW (200°)14.8 km/h27.8 km/h0 mmMostly Cloudy
8:53 PM5 °C0 °C70 %1015.6 hPa16.1 kmSouth (190°)20.4 km/h29.6 km/h0 mmRainLight Rain
9:01 PM5 °C0 °C70 %1016.9 hPa16.1 kmSouth (180°)20.4 km/h35.2 km/h0 mmRainLight Rain
9:41 PM4 °C0 °C75 %1017.3 hPa16.1 kmSouth (180°)24.1 km/h57.5 km/h0 mmRainLight Rain
9:53 PM4.4 °C0 °C73 %1015.9 hPa16.1 kmSouth (170°)22.2 km/h42.6 km/h0 mmRainLight Rain
11:46 PM4 °C-1 °C70 %1017.9 hPa16.1 kmSouth (170°)18.5 km/h37 km/h0 mmOvercast
11:53 PM3.9 °C-1.1 °C70 %1015.9 hPa16.1 kmSouth (170°)20.4 km/h0 mmOvercast
Hourly data recorded from KTVL, located 0 kilometers away from South Lake Tahoe - Airport, California







STORIES FROM OUR PARTNERS